Dunavske Čarolije 2026

29. avgust 2026. subota
Srbija, Čortanovci
Velika
23.4 km
Mala
13.4 km
Dunavske Čarolije 2026
#Takmičar/kaVremeTempoPolKlubKategorijaKat.
11Ljubomir Vukšić1:21:316:05min/kmMPK Železničar-InđijaApsolutna1
22Milijan Dimitrijević1:22:22+0:516:09min/kmMSU PTU KozomorApsolutna2
33Bojan Radojčić1:30:43+9:126:46min/kmMPK Železničar-InđijaApsolutna3
4Adrian Matatić1:32:11+10:406:53min/kmMPSK SpartakApsolutna4
5Petar Šarić1:33:20+11:496:58min/kmMVeterani1
61Nevena Vlaisavljević1:34:01+12:307:01min/kmFPD ''Pokret''Juniori1
7Jovan Stojić1:34:09+12:387:02min/kmMPD Alma Mons AdventuresJuniori1
82Jasna Starović1:36:07+14:367:10min/kmFJuniori2
9Nenad Aleksić1:37:18+15:477:16min/kmMPSK BalkanVeterani2
10Luka Selić1:38:06+16:357:19min/kmMJuniori2
113Ivona Grubišić1:38:19+16:487:20min/kmFJuniori3
12Boško Čotra1:40:22+18:517:29min/kmMPK Železničar-InđijaVeterani3
13Katarina Kuzman1:40:33+19:027:30min/kmFPSK BalkanApsolutna1
14Aleksandar Tomić1:41:08+19:377:33min/kmMPSK BalkanVeterani4
15Milica Medić1:41:23+19:527:34min/kmFPSK SpartakApsolutna2
16Svetozar Tadić1:42:07+20:367:37min/kmMPK Železničar-InđijaVeterani5
17Dragan Kovačević1:42:17+20:467:38min/kmMPK Železničar-InđijaApsolutna5
18Željko Cvetanović1:42:26+20:557:39min/kmMPSK BalkanVeterani6
19Mila Novaković1:43:14+21:437:42min/kmFApsolutna3
20Vladimir Kostić1:43:44+22:137:44min/kmMPK Železničar-InđijaApsolutna6
21Mladen Jurišić1:43:58+22:277:46min/kmMPK Železničar-InđijaApsolutna7
22Goran Cvijić1:44:40+23:097:49min/kmMVeterani7
23Slađana Štrbački1:44:59+23:287:50min/kmFApsolutna4
24Žolt Terečik1:45:09+23:387:51min/kmMVeterani8
25Gordana Cvijić1:45:16+23:457:51min/kmFPK GučevoVeterani1
26Dušan Radojčin1:45:24+23:537:52min/kmMPAK ČivijaApsolutna8
27Dragana Milosavljević1:46:19+24:487:56min/kmFPK GučevoApsolutna5
28Ivana Todorović1:46:34+25:037:57min/kmFApsolutna6
29Igor Bijelić1:46:44+25:137:58min/kmMApsolutna9
30Sara Jovović1:46:52+25:217:59min/kmFJuniori4
31Petar Petrov1:47:52+26:218:03min/kmMApsolutna10
32Dragana Dokmanović1:48:01+26:308:04min/kmFSK Magic MapApsolutna7
33Ana Kuzmanović1:48:10+26:398:04min/kmFApsolutna8
34Uroš Mišić1:48:21+26:508:05min/kmMJuniori3
35Ana Savić1:48:44+27:138:07min/kmFPAK ČivijaApsolutna9
36Milica Selić1:48:55+27:248:08min/kmFApsolutna10
37Nenad Simonović1:49:58+28:278:12min/kmMApsolutna11
38Valentina Egorova1:50:40+29:098:16min/kmFApsolutna11
39Sergej Medvedev1:50:57+29:268:17min/kmMPK Železničar-InđijaApsolutna12
40Nikola Stamenić1:52:13+30:428:22min/kmMPSK BalkanApsolutna13
41Petar Jovanović1:52:34+31:038:24min/kmMApsolutna14
42Danilo Gvozdenović1:52:43+31:128:25min/kmMApsolutna15
43Milan Avram1:53:01+31:308:26min/kmMPSD Stara PazovaVeterani9
44Nebojša Šurjanac1:53:13+31:428:27min/kmMApsolutna16
45Slađana Jezdimirović1:54:25+32:548:32min/kmFPSK BalkanVeterani2
46Sonja Radosavljević1:55:13+33:428:36min/kmFPK Železničar-InđijaVeterani3
47Goran Baroš1:55:21+33:508:36min/kmMPK Železničar-InđijaVeterani10
48Mladen Tešić1:55:31+34:008:37min/kmMApsolutna17
49Vanja Kliska1:55:41+34:108:38min/kmMPD Alma Mons AdventuresJuniori4
50Lazar Lazić1:56:08+34:378:40min/kmMJuniori5
51Iva Vasić1:56:18+34:478:41min/kmFApsolutna12
52Boris Starović1:56:30+34:598:42min/kmMVeterani11
53Milan Milaković1:58:01+36:308:48min/kmMApsolutna18
54Lidija Stojanac1:58:09+36:388:49min/kmFJuniori5
55Vladimir Prodanov1:58:20+36:498:50min/kmMVeterani12
56Sonja Starović1:58:57+37:268:53min/kmFVeterani4
57Branko Ostojić2:02:27+40:569:08min/kmMPGD ''Eko Kurir''Apsolutna19
58Dragomir Đinisov2:07:23+45:529:30min/kmMPSK BalkanVeterani13
59Bojan Pekez2:07:36+46:059:31min/kmMVeterani14
60Vlada Nedić2:08:35+47:049:36min/kmMPK Železničar-InđijaVeterani15
61Nataša Naletina2:09:25+47:549:39min/kmFPSK BalkanApsolutna13
62Andreja Tepavčević2:10:32+49:019:44min/kmFPD ''Planeta''Veterani5
63Bernanda Kostić2:11:10+49:399:47min/kmFApsolutna14
64Dunja Josimović2:12:11+50:409:52min/kmFPD ''Pokret''Juniori6
65Ivana Sokolović2:12:27+50:569:53min/kmFApsolutna15
66Maša Vuković2:13:57+52:2610:00min/kmFJuniori7
67Vanja Vuković2:14:37+53:0610:03min/kmFApsolutna16
68Zoran Jakovljev2:14:57+53:2610:04min/kmMPSD StražilovoVeterani16
69Željko Rajak2:16:26+54:5510:11min/kmMVeterani17
70Marija Bokić2:18:21+56:5010:19min/kmFApsolutna17
71Miloš Grković2:18:29+56:5810:20min/kmMApsolutna20
72Mirko Ljušić2:20:40+59:0910:30min/kmMApsolutna21
73Ljiljana Šašo2:31:12+69:4111:17min/kmFApsolutna18
74Slađana Gavrilović2:31:26+69:5511:18min/kmFPSD MaglešVeterani6
75Vesna Gavrilović2:31:34+70:0311:19min/kmFPSD MaglešVeterani7
76Srđan Jovanović2:33:40+72:0911:28min/kmMPK Železničar-InđijaApsolutna22
77Maria Karavaeva2:33:54+72:2311:29min/kmFApsolutna19
78Slaviša Nedeljković2:34:06+72:3511:30min/kmMPGD ''Eko Kurir''Veterani18
79Mina Mišić2:34:27+72:5611:32min/kmFJuniori8
80Zoran Matić2:41:07+79:3612:01min/kmMPAK ČivijaVeterani19
81Rosa Jekić2:41:16+79:4512:02min/kmFPAK ČivijaVeterani8
82Dragan Atanasijević2:43:05+81:3412:10min/kmMVeterani20
83Marko Erceg2:49:56+88:2512:41min/kmMPSK BalkanVeterani21
84Vesna Jovanović2:52:27+90:5612:52min/kmFPSK SpartakVeterani9
85Boris Šušak2:52:35+91:0412:53min/kmMPD ZmajevacVeterani22
86Darko Banković2:53:47+92:1612:58min/kmMApsolutna23
87Marija Maljica3:03:59+102:2813:44min/kmFKP ZrenjaninApsolutna20
88Marija Avramov3:04:09+102:3813:45min/kmFKP ZrenjaninJuniori9
89Teodora Riznić3:07:27+105:5613:59min/kmFPD BukuljaJuniori10
90Aleksandar Riznić3:07:35+106:0414:00min/kmMPD BukuljaApsolutna24
91Jelena Živanov3:10:55+109:2414:15min/kmFApsolutna21
92Aleksandra Todorov3:14:14+112:4314:30min/kmFKP ZrenjaninApsolutna22
93Nebojša Petrović3:14:30+112:5914:31min/kmMKP ZrenjaninVeterani23
94Livija Nemet3:19:58+118:2714:55min/kmFPGD ''Eko Kurir''Apsolutna23
95Helena Hrnjački3:20:21+118:5014:57min/kmFSPU ''Outdoor Adventure''Apsolutna24
96Nikola Vujadinović3:20:33+119:0214:58min/kmMPD Alma Mons AdventuresApsolutna25
97Milojka Ponoćko3:20:49+119:1814:59min/kmFKP ZrenjaninVeterani10
98Stojanka Janoši Zeljković3:22:42+121:1115:08min/kmFPGD ''Eko Kurir''Veterani11
99Dragoljub Radović3:23:24+121:5315:11min/kmMPK Železničar-InđijaVeterani24
100Blagoje Pašić3:30:03+128:3215:41min/kmMVeterani25
101Helena Tegeltija3:30:20+128:4915:42min/kmFApsolutna25
102Vida Medić3:30:52+129:2115:44min/kmFPSK SpartakApsolutna26
103Milan Vitas3:31:54+130:2315:49min/kmMVeterani26
104Zlatko Veršegi3:36:55+135:2416:11min/kmMPD ''Pokret''Veterani27
105Gregor Veršegi3:37:07+135:3616:12min/kmMPD ''Pokret''Juniori6
106Vesna Marčeta3:41:15+139:4416:31min/kmFPGD ''Eko Kurir''Veterani12
107Dajana Matić3:41:45+140:1416:33min/kmFPD ZmajevacApsolutna27
108Dragana Malešević3:55:45+154:1417:36min/kmFApsolutna28
109Milana Matić3:55:57+154:2617:36min/kmFApsolutna29
110Damir Pejić4:19:09+177:3819:20min/kmMPGD ''Eko Kurir''Veterani28
111Emilija File4:19:21+177:5019:21min/kmFPSK SpartakVeterani13
112Jelena Arađanin4:48:07+206:3621:30min/kmFPD ''Pokret''Veterani14
113Lazar Lazić4:55:34+214:0322:03min/kmMSU PSD PoštarJuniori7
114Duško Kosjer4:55:43+214:1222:04min/kmMSU PSD PoštarVeterani29
115Milorad Novaković4:56:30+214:5922:08min/kmMPSD ŽelezničarVeterani30
Sanja MitićDNFFApsolutna
Nikola MileusnićDNFMPD ''Pokret''Juniori
Saša KozlenkovaDNFFApsolutna
2026 Mountain-race.rs